TOURFACTS.DK  
Stats and Facts from Tour de France.

Tour de France 2019 starts in 348 days
  Riders   Stages   Teams   Summits   Yearly  


 
Search by year

After 2018 - Stage 14:
 15000 starters.
  5163 different riders.
  639 teams.
  2246 stages.
  456 restdays.
  441957.60 km.
  5678 abandonnees.


Top 3
GC
Christopher Froome86:20:55
Rigoberto Urán86:21:49
Romain Bardet86:23:15
Climb
Warren Barguil169 pt.
Primoz Roglic80 pt.
Thomas De Gendt64 pt.
Sprint
Michael Matthews359 pt.
André Greipel234 pt.
Edvald Boasson Hagen220 pt.
Youth
Simon Yates86:27:09
Louis Meintjes86:29:15
Emanuel Buchmann86:54:16
Facts from Tour de France 1990
  |   Stages.  |   Stage winners.  |   Days in yellow  |   Average speed.  |   Route.  |   Teams.  |   All riders.  |   Rookies.  |  

  |   Withdrawls.  |   GC.  |   Polka  |   Green  |   White  |   Summits. (In tour)  |   Miscellaneous.  |  

Stage 20 on July 21st. 1990
         Owning:    Greg LeMond    
Pick a stage:  Pro 1 2 3 4 5 6 7 8 9 10 11 12 13 14 15 16 17 18 19 20 21
From: Lac de Vassivière    To: Lac de VassivièreDist:45.50 km.

Average speed for all riders in stage:  39,562 km./hr.
    Place:Name:Team:Time:Km/h:
NEDErik BreukinkNLDPDM-Concorde01:02:40  +  00:00:00=43,564 
ESPRaúl AlcaláNLDPDM-Concorde01:03:08  +  00:00:28=43,242 
ESPMarino LejarretaESPO.N.C.E.01:03:18  +  00:00:38=43,128 
4 ESPMiguel IndurainESPBanesto01:03:20  +  00:00:40=43,105 
5 USAGreg LeMondFRAZ-Peugeot01:03:37  +  00:00:57=42,913 
6 ESPPello RuizESPO.N.C.E.01:04:08  +  00:01:28=42,568 
7 NORDag Otto LauritzenUSA7-Eleven-Hoonved01:04:41  +  00:02:01=42,206 
8 ESPPedro DelgadoESPBanesto01:05:01  +  00:02:21=41,989 
9 FRAPhilippe LouviotNLDToshiba01:05:06  +  00:02:26=41,935 
10 FRALuc LeblancFRACastorama-Raleigh01:05:07  +  00:02:27=41,925 
11 ESPEduardo ChozasESPO.N.C.E.01:05:07  +  00:02:27=41,925 
12 BELPaul HaghedoorenBELHistor-Sigma01:05:08  +  00:02:28=41,914 
13 CANSteve BauerUSA7-Eleven-Hoonved01:05:32  +  00:02:52=41,658 
14 FRAGilles DelionCHEHelvetia-La Suisse01:05:41  +  00:03:01=41,563 
15 SUIGianni BugnoITAChateau d'Ax01:05:52  +  00:03:12=41,447 
16 FRAFabrice PhilipotFRACastorama-Raleigh01:05:58  +  00:03:18=41,385 
17 ITAClaudio ChiappucciITACarrera Jeans-Vagabond01:05:58  +  00:03:18=41,385 
18 DENBrian HolmBELHistor-Sigma01:06:02  +  00:03:22=41,343 
19 ITARoberto ContiITAAriostea01:06:13  +  00:03:33=41,228 
20 COLWilliam PalacioCOLRyalcao-Postobon01:06:22  +  00:03:42=41,135 
21 BELJohan BruyneelBELLotto-Superclub01:06:31  +  00:03:51=41,042 
22 AUSStephen HodgeESPO.N.C.E.01:06:36  +  00:03:56=40,991 
23 URSViatcheslav EkimovNLDPanasonic-Sportlife01:06:40  +  00:04:00=40,950 
24 ESPMelchor MauriESPO.N.C.E.01:06:42  +  00:04:02=40,930 
25 FRAÉric BoyerFRAZ-Peugeot01:06:45  +  00:04:05=40,899 
26 COLFabio Parra PintoESPKelme-Ibexpress01:06:47  +  00:04:07=40,878 
27 BELMichel DerniesCHEWeinmann-La Suisse-S.M.M. Uste..01:06:48  +  00:04:08=40,868 
28 DENTony RomingerITAChateau d'Ax01:06:52  +  00:04:12=40,828 
29 DDRUwe RaabNLDPDM-Concorde01:06:55  +  00:04:15=40,797 
30 USAAndy HampstenUSA7-Eleven-Hoonved01:07:02  +  00:04:22=40,726 
31 FRAJerôme SimonFRAZ-Peugeot01:07:05  +  00:04:25=40,696 
32 BELClaude CriquielionBELLotto-Superclub01:07:06  +  00:04:26=40,686 
33 NEDGerrit De VriesNLDBuckler01:07:08  +  00:04:28=40,665 
34 ESPHerminio ZabalaESPO.N.C.E.01:07:08  +  00:04:28=40,665 
35 URSDimitri KonychevITAAlfa Lum01:07:11  +  00:04:31=40,635 
36 NORAtle KvålsvollFRAZ-Peugeot01:07:14  +  00:04:34=40,605 
37 ENGPhil AndersonNLDTVM01:07:22  +  00:04:42=40,524 
38 FRAGilbert Duclos-LassalleFRAZ-Peugeot01:07:25  +  00:04:45=40,494 
39 NEDJelle NijdamNLDBuckler01:07:28  +  00:04:48=40,464 
40 FRACharly MottetFRAR.M.O.-Mavic-Liberia01:07:30  +  00:04:50=40,444 
41 ITAAlessandro GiannelliITACarrera Jeans-Vagabond01:07:30  +  00:04:50=40,444 
42 COLOscar VargasCOLRyalcao-Postobon01:07:32  +  00:04:52=40,424 
43 NEDFrans MaassenNLDBuckler01:07:47  +  00:05:07=40,275 
44 DDRJan SchurITAChateau d'Ax01:07:53  +  00:05:13=40,216 
45 BELMarc SergeantNLDPanasonic-Sportlife01:07:54  +  00:05:14=40,206 
46 FRAJean-Claude ColottiFRAR.M.O.-Mavic-Liberia01:07:59  +  00:05:19=40,157 
47 COLReynel MontoyaCOLRyalcao-Postobon01:08:00  +  00:05:20=40,147 
48 IRLStephen RocheBELHistor-Sigma01:08:01  +  00:05:21=40,137 
49 USANorman AlvisUSA7-Eleven-Hoonved01:08:02  +  00:05:22=40,127 
50 NEDGerrit SolleveldNLDBuckler01:08:03  +  00:05:23=40,118 
51 USAAndrew BishopUSA7-Eleven-Hoonved01:08:04  +  00:05:24=40,108 
52 FRAPascal LinoFRAR.M.O.-Mavic-Liberia01:08:06  +  00:05:26=40,088 
53 DENSøren LilholtBELHistor-Sigma01:08:12  +  00:05:32=40,029 
54 COLAlvaro MejiaCOLRyalcao-Postobon01:08:14  +  00:05:34=40,010 
55 FRALaurent PillonBELHistor-Sigma01:08:24  +  00:05:44=39,912 
56 NEDSteven RooksNLDPanasonic-Sportlife01:08:29  +  00:05:49=39,864 
57 BELCarlo BomansCHEWeinmann-La Suisse-S.M.M. Uste..01:08:31  +  00:05:51=39,844 
58 SUIJörg MüllerNLDTVM01:08:31  +  00:05:51=39,844 
59 SUIBeat BreuCHEWeinmann-La Suisse-S.M.M. Uste..01:08:31  +  00:05:51=39,844 
60 FRAPascal SimonFRACastorama-Raleigh01:08:36  +  00:05:56=39,796 
61 BELJos HaexBELLotto-Superclub01:08:38  +  00:05:58=39,777 
62 ITAGuido BontempiITACarrera Jeans-Vagabond01:08:39  +  00:05:59=39,767 
63 FRAFrédéric BrunFRAR.M.O.-Mavic-Liberia01:08:39  +  00:05:59=39,767 
64 FRAJean-Claude BagotFRAR.M.O.-Mavic-Liberia01:08:41  +  00:06:01=39,748 
65 URSVasily ZhdanovITAAlfa Lum01:08:43  +  00:06:03=39,728 
66 SUIMauro GianettiCHEHelvetia-La Suisse01:08:50  +  00:06:10=39,661 
67 ESPMiguel Angel MartinezESPO.N.C.E.01:08:52  +  00:06:12=39,642 
68 COLGerardo MoncadaCOLRyalcao-Postobon01:08:55  +  00:06:15=39,613 
69 URSPiotr UgrumovITAAlfa Lum01:08:56  +  00:06:16=39,603 
70 NEDMaarten DucrotNLDTVM01:09:00  +  00:06:20=39,565 
71 USARonald KiefelUSA7-Eleven-Hoonved01:09:01  +  00:06:21=39,556 
72 BELPatrick RobeetCHEWeinmann-La Suisse-S.M.M. Uste..01:09:06  +  00:06:26=39,508 
73 FRADenis RouxNLDToshiba01:09:11  +  00:06:31=39,460 
74 FRARonan PensecFRAZ-Peugeot01:09:13  +  00:06:33=39,441 
75 COLNelson RodriguezESPKelme-Ibexpress01:09:16  +  00:06:36=39,413 
76 FRADominique ArnaudESPBanesto01:09:16  +  00:06:36=39,413 
77 URSDjamolidine AbduzhaparovITAAlfa Lum01:09:20  +  00:06:40=39,375 
78 COLNéstor MoraESPKelme-Ibexpress01:09:20  +  00:06:40=39,375 
79 ESPMarino MonjeESPBanesto01:09:24  +  00:06:44=39,337 
80 ITAAlberto ElliITAAriostea01:09:26  +  00:06:46=39,318 
81 NEDEdwig Van HooydonckNLDBuckler01:09:26  +  00:06:46=39,318 
82 BELGuy NulensNLDPanasonic-Sportlife01:09:28  +  00:06:48=39,299 
83 FRAVincent BarteauFRACastorama-Raleigh01:09:29  +  00:06:49=39,290 
84 URSAlexandre TrubineITAAlfa Lum01:09:31  +  00:06:51=39,271 
85 NEDJos Van AertNLDPDM-Concorde01:09:34  +  00:06:54=39,243 
86 NEDToine PoelsNLDBuckler01:09:36  +  00:06:56=39,224 
87 DDROlaf LudwigNLDPanasonic-Sportlife01:09:39  +  00:06:59=39,196 
88 ITAAdriano BaffiITAAriostea01:09:40  +  00:07:00=39,187 
89 ENGSean YatesUSA7-Eleven-Hoonved01:09:41  +  00:07:01=39,177 
90 SUIThomas WegmüllerCHEWeinmann-La Suisse-S.M.M. Uste..01:09:43  +  00:07:03=39,158 
91 FRABruno CornilletFRAZ-Peugeot01:09:48  +  00:07:08=39,112 
92 FRAThierry ClaveyrolatFRAR.M.O.-Mavic-Liberia01:09:49  +  00:07:09=39,102 
93 ITAValerio PivaITAAriostea01:09:49  +  00:07:09=39,102 
94 BELWilfried PeetersBELHistor-Sigma01:09:51  +  00:07:11=39,084 
95 BELJohan MuseeuwBELLotto-Superclub01:09:52  +  00:07:12=39,074 
96 COLCarlos JaramilloCOLRyalcao-Postobon01:09:52  +  00:07:12=39,074 
97 BELRudy DhaenensNLDPDM-Concorde01:09:56  +  00:07:16=39,037 
98 BELJan GoessensCHEWeinmann-La Suisse-S.M.M. Uste..01:09:57  +  00:07:17=39,028 
99 NEDHenri MandersCHEHelvetia-La Suisse01:09:58  +  00:07:18=39,019 
100 PORJosé FerreiraFRASeur01:09:59  +  00:07:19=39,009 
101 ESPVicente RidauraFRASeur01:09:59  +  00:07:19=39,009 
102 DDRMario KummerITAChateau d'Ax01:10:00  +  00:07:20=39,000 
103 ENGMaximilian SciandriITACarrera Jeans-Vagabond01:10:07  +  00:07:27=38,935 
104 ESPJuan MartinezESPBanesto01:10:08  +  00:07:28=38,926 
105 FRAFrançois LemarchandFRAZ-Peugeot01:10:09  +  00:07:29=38,917 
106 ESPAnselmo FuerteESPO.N.C.E.01:10:09  +  00:07:29=38,917 
107 ESPAntonio DiasESPKelme-Ibexpress01:10:09  +  00:07:29=38,917 
108 FRAJean-Claude LeclercqCHEHelvetia-La Suisse01:10:10  +  00:07:30=38,907 
109 ITAGiovanni FidanzaITAChateau d'Ax01:10:16  +  00:07:36=38,852 
110 IRLSean KellyNLDPDM-Concorde01:10:18  +  00:07:38=38,834 
111 BELWillem Van EyndeBELLotto-Superclub01:10:20  +  00:07:40=38,815 
112 COLJuan CastilloCOLRyalcao-Postobon01:10:22  +  00:07:42=38,797 
113 NEDPatrick TolhoekNLDBuckler01:10:30  +  00:07:50=38,723 
114 NEDAdri Van Der PoelCHEWeinmann-La Suisse-S.M.M. Uste..01:10:32  +  00:07:52=38,705 
115 ITABruno CenghialtaITAAriostea01:10:32  +  00:07:52=38,705 
116 FRAThierry LaurentFRAR.M.O.-Mavic-Liberia01:10:33  +  00:07:53=38,696 
117 FRALaurent BiondiBELHistor-Sigma01:10:34  +  00:07:54=38,687 
118 NEDPeter WinnenNLDBuckler01:10:38  +  00:07:58=38,650 
119 BELPeter De ClercqBELLotto-Superclub01:10:39  +  00:07:59=38,641 
120 FRAChristian ChaubetNLDToshiba01:10:40  +  00:08:00=38,632 
121 ITAGuiseppe CalcaterraITAChateau d'Ax01:10:42  +  00:08:02=38,614 
122 NEDGert JakobsNLDPDM-Concorde01:10:44  +  00:08:04=38,596 
123 BELPeter RoesBELLotto-Superclub01:10:47  +  00:08:07=38,568 
124 ITAMassimo GhirottoITACarrera Jeans-Vagabond01:10:49  +  00:08:09=38,550 
125 ITAGiancarlo PeriniITACarrera Jeans-Vagabond01:10:54  +  00:08:14=38,505 
126 ITAGiuseppe SaronniESPKelme-Ibexpress01:10:55  +  00:08:15=38,496 
127 SUIKurt SteinmannCHEWeinmann-La Suisse-S.M.M. Uste..01:10:55  +  00:08:15=38,496 
128 ESPJosé UreaFRASeur01:10:56  +  00:08:16=38,487 
129 NEDJan SiemonsNLDTVM01:11:00  +  00:08:20=38,451 
130 COLWilliam PulidoCOLRyalcao-Postobon01:11:02  +  00:08:22=38,433 
131 FRAThierry MarieFRACastorama-Raleigh01:11:07  +  00:08:27=38,388 
132 ITARoberto GusmeroliITAChateau d'Ax01:11:07  +  00:08:27=38,388 
133 USADavis PhinneyUSA7-Eleven-Hoonved01:11:13  +  00:08:33=38,334 
134 ITAAlberto VolpiITAChateau d'Ax01:11:13  +  00:08:33=38,334 
135 ESPPablo MorenoFRASeur01:11:13  +  00:08:33=38,334 
136 ESPJesús RosadoESPKelme-Ibexpress01:11:18  +  00:08:38=38,289 
137 FRARoland Le ClercNLDToshiba01:11:22  +  00:08:42=38,253 
138 ITADavide CassaniITAAriostea01:11:25  +  00:08:45=38,226 
139 BELHendrik RedantBELLotto-Superclub01:11:34  +  00:08:54=38,146 
140 GERAndreas KappesNLDToshiba01:11:41  +  00:09:01=38,084 
141 ITARodolfo MassiITAAriostea01:11:44  +  00:09:04=38,058 
142 COLAbelardo RondonESPBanesto01:11:52  +  00:09:12=37,987 
143 SUIErich MächlerITACarrera Jeans-Vagabond01:11:55  +  00:09:15=37,961 
144 BELMichel VermoteFRAR.M.O.-Mavic-Liberia01:11:55  +  00:09:15=37,961 
145 URSNikolai GolovatenkoITAAlfa Lum01:11:56  +  00:09:16=37,952 
146 NEDMartin SchalkersNLDTVM01:11:57  +  00:09:17=37,943 
147 ITAMarcello SiboniITAAriostea01:11:59  +  00:09:19=37,925 
148 ITAMauro-Antonio SantaromitaITAChateau d'Ax01:12:11  +  00:09:31=37,820 
149 BELEric Van LanckerNLDPanasonic-Sportlife01:12:19  +  00:09:39=37,751 
150 ESPJesus RodriguezESPBanesto01:12:22  +  00:09:42=37,725 
151 USABob RollUSA7-Eleven-Hoonved01:12:36  +  00:09:56=37,603 
152 BELPatrick VerschuerenBELLotto-Superclub01:12:47  +  00:10:07=37,509 
153 ESPAntonio EspejoESPKelme-Ibexpress01:12:51  +  00:10:11=37,474 
154 PORAcacio da SilvaITACarrera Jeans-Vagabond01:13:27  +  00:10:47=37,168 
155 NEDJean-Paul van PoppelNLDPanasonic-Sportlife01:13:55  +  00:11:15=36,933 
156 COLPablo HernandezCOLRyalcao-Postobon01:14:45  +  00:12:05=36,522 


Todays birthdays.

1877  Antoine Perrichon
1878  Auguste Berthault
1911  Théo Herckenrath
1924  Carlo Lafranchi
1931  Armand Di Caro
1937  Jean-Claude Lebaube
1951  Giovanni Battaglin
1961  Pascal Jules
1962  Jean-Claude Leclercq
1976  Janek Tombak
1978  Francisco Pérez
1983  Dries Devenyns




Visits: